[[{"header":{"parameterUnit":"m.s-1","parameterCategory":1,"la1":30.2991,"la2":30.254,"lo1":-89.0895,"lo2":-89.0444,"dy":0.0017,"dx":0.0017,"nx":28,"ny":28,"refTime":"2023-08-27T21:00:00:Z","depth":0,"parameterNumber":2,"parameterNumberName":"U-component_of_WINDS"},"data":[0,0,0,0,0,0,0,0,0,0,0,0,0,0,0,0,0,0,0,0,0,0,0,0,0,0,0,0,0,0,0,0,0,0,0,0,0,0,0,0,0,0,0,0,0,0,0,0,0,0,0,0,0,0,0,0,0,0,-0.1943,-0.1942,0,-0.1851,-0.185,-0.1849,-0.1866,-0.1867,-0.1869,-0.187,-0.177,-0.1766,-0.1762,0,0,0,0,0,0,0,0,0,0,0,0,0,-0.2127,-0.2124,-0.1944,-0.1942,-0.1941,-0.1852,-0.185,-0.1849,-0.1865,-0.1867,-0.1869,-0.1871,-0.1771,-0.1766,-0.1761,0,0,0,0,0,0,0,0,0,0,0,0,0,-0.2042,-0.2123,-0.1944,-0.1939,-0.1937,-0.1852,-0.185,-0.1849,-0.1865,-0.1867,-0.187,-0.1872,-0.1773,-0.1767,-0.1761,-0.1672,0,0,-0.1741,-0.1739,0,0,0,0,0,0,0,0,-0.2047,-0.2036,-0.1941,-0.1939,-0.1937,-0.1873,-0.1878,-0.1789,-0.1864,-0.1892,-0.187,-0.1873,-0.1802,-0.1793,-0.177,-0.1668,-0.1663,-0.1741,-0.1737,-0.1734,-0.1732,0,0,0,0,0,0,0,-0.2053,-0.204,-0.1907,-0.1939,-0.1937,-0.1939,-0.193,-0.1861,-0.1834,-0.189,-0.1891,-0.188,-0.1801,-0.1776,-0.1768,-0.1662,-0.1741,-0.1735,-0.1731,-0.1729,-0.1481,-0.1479,0,0,0,0,0,0,-0.2061,-0.2045,-0.191,-0.1904,-0.2,-0.1934,-0.1923,-0.1891,-0.1835,-0.1829,-0.1878,-0.1881,-0.1786,-0.1775,-0.1765,-0.1657,-0.1734,-0.1728,-0.1725,-0.1484,-0.1481,-0.1478,0,0,0,0,0,0,-0.2065,-0.2049,-0.1914,-0.1975,-0.1957,-0.1928,-0.1891,-0.1888,-0.1863,-0.1826,-0.1821,-0.1858,-0.1787,-0.1773,-0.1695,-0.1654,-0.1726,-0.172,-0.1487,-0.1483,-0.1479,-0.1442,0,0,0,0,0,0,-0.2071,-0.2051,-0.2018,-0.1974,-0.1954,-0.1848,-0.1889,-0.1884,-0.1853,-0.1856,-0.1806,-0.18,-0.1788,-0.1705,-0.1689,-0.1647,-0.1715,-0.1491,-0.1485,-0.148,-0.1447,-0.1437,-0.1429,0,0,0,0,0,-0.2077,-0.201,-0.2017,-0.2,-0.1914,-0.1845,-0.1834,-0.1824,-0.1849,-0.1816,-0.1792,-0.1801,-0.1661,-0.1697,-0.1679,-0.1634,-0.1493,-0.1487,-0.1481,-0.1451,-0.1439,-0.1429,0,0,0,0,0,0,-0.2049,-0.2005,-0.2011,-0.1928,-0.1891,-0.1848,-0.1806,-0.1812,-0.1764,-0.1769,-0.1756,-0.1745,-0.1666,-0.1642,-0.1682,-0.1545,-0.1581,-0.157,-0.1564,-0.1552,-0.1543,-0.1551,-0.171,0,0,0,0,0,-0.2033,-0.1984,-0.1947,-0.1877,-0.1858,-0.1835,-0.1805,-0.1801,-0.176,-0.1744,-0.1714,-0.1673,-0.162,-0.1585,-0.1533,-0.1444,-0.1432,-0.1404,-0.1395,-0.1388,-0.1379,-0.1329,-0.1315,-0.1457,-0.1457,-0.1457,0,0,-0.2,-0.197,-0.1939,-0.1871,-0.1841,-0.1788,-0.1822,-0.1764,-0.1724,-0.1734,-0.166,-0.1636,-0.1589,-0.1505,-0.1466,-0.1483,-0.1337,-0.138,-0.1374,-0.1369,-0.1321,-0.1307,-0.1295,-0.1453,-0.1453,-0.1454,0,0,-0.1913,-0.1885,-0.1824,-0.1794,-0.175,-0.1734,-0.172,-0.1676,-0.1662,-0.1587,-0.1593,-0.1544,-0.1453,-0.1419,-0.139,-0.1289,-0.1296,-0.1272,-0.1225,-0.1176,-0.1165,-0.1155,-0.1119,-0.1106,-0.1264,-0.1264,-0.1264,0,-0.1876,-0.1799,-0.1791,-0.1734,-0.1703,-0.1712,-0.1649,-0.1619,-0.1559,-0.1537,-0.1556,-0.1442,-0.1411,-0.1318,-0.1294,-0.127,-0.1251,-0.1278,-0.1168,-0.1158,-0.1148,-0.1113,-0.1099,-0.1261,-0.1261,-0.1262,-0.1262,0,-0.1756,-0.1702,-0.1658,-0.1602,-0.1566,-0.1506,-0.1487,-0.1451,-0.145,-0.1432,-0.1354,-0.1318,-0.1259,-0.1237,-0.1234,-0.1143,-0.1155,-0.1171,-0.1206,-0.1132,-0.1099,-0.1086,-0.1258,-0.1258,-0.1259,-0.126,0,0,-0.1648,-0.159,-0.1573,-0.1548,-0.1499,-0.1456,-0.1395,-0.134,-0.1309,-0.1267,-0.1214,-0.1137,-0.1152,-0.1118,-0.1112,-0.1069,-0.099,-0.109,-0.1089,-0.1073,-0.0887,-0.0875,-0.086,-0.0995,-0.0992,-0.099,-0.0891,0,-0.1556,-0.1452,-0.1443,-0.1348,-0.1297,-0.1304,-0.1251,-0.1214,-0.1195,-0.1148,-0.1127,-0.1072,-0.1096,-0.1076,-0.1034,-0.1009,-0.0953,-0.1016,-0.0944,-0.0942,-0.0956,-0.0843,-0.083,-0.0738,-0.0878,-0.0876,-0.0874,0,-0.1435,-0.1391,-0.1292,-0.125,-0.1228,-0.1181,-0.1129,-0.1084,-0.1041,-0.1031,-0.0994,-0.0993,-0.0928,-0.0966,-0.0876,-0.0919,-0.0888,-0.0872,-0.0868,-0.086,-0.0904,-0.0832,-0.0709,-0.0695,-0.0854,-0.0855,-0.0857,0,-0.1366,-0.1282,-0.1211,-0.1189,-0.1139,-0.1105,-0.1082,-0.1042,-0.1009,-0.0963,-0.0941,-0.0887,-0.0857,-0.0815,-0.0798,-0.0828,-0.0708,-0.0745,-0.0696,-0.0697,-0.0671,-0.0673,-0.0541,-0.0652,-0.0652,-0.0652,-0.0653,0,-0.1263,-0.1202,-0.118,-0.1136,-0.1067,-0.1057,-0.0988,-0.0966,-0.093,-0.0881,-0.0884,-0.0837,-0.0818,-0.0768,-0.0754,-0.0681,-0.0668,-0.0656,-0.0653,-0.0656,-0.0657,-0.0636,-0.0642,-0.0649,-0.065,-0.065,-0.0651,0,-0.1175,-0.1158,-0.1081,-0.104,-0.1028,-0.0979,-0.0942,-0.0899,-0.0882,-0.0819,-0.0804,-0.0775,-0.0716,-0.0696,-0.0624,-0.0614,-0.0529,-0.0532,-0.0544,-0.0544,-0.0496,-0.0501,-0.0346,-0.0325,-0.045,-0.0448,-0.0447,0,-0.1111,-0.1064,-0.1018,-0.0986,-0.0963,-0.0911,-0.0878,-0.0865,-0.083,-0.0778,-0.0741,-0.0683,-0.0636,-0.0541,-0.0512,-0.0457,-0.0458,-0.0407,-0.0449,-0.0453,-0.0456,-0.0459,-0.0454,-0.0399,-0.0398,-0.0397,-0.0396,0,-0.0999,-0.0993,-0.0946,-0.0896,-0.0857,-0.0816,-0.0776,-0.075,-0.0731,-0.0691,-0.0632,-0.0595,-0.0522,-0.0464,-0.0407,-0.0381,-0.0384,-0.0383,-0.0369,-0.0371,-0.038,-0.0374,-0.0523,-0.0387,-0.0388,-0.0388,-0.0389,-0.0389,-0.092,-0.0879,-0.084,-0.0788,-0.0757,-0.072,-0.0678,-0.0655,-0.0606,-0.0548,-0.0542,-0.0478,-0.0435,-0.036,-0.0331,-0.0279,-0.0293,-0.0272,-0.0267,-0.0262,-0.0259,-0.0389,-0.0269,-0.0269,-0.0269,-0.0269,-0.027,0,-0.0808,-0.0784,-0.0736,-0.0681,-0.0639,-0.0649,-0.0605,-0.0569,-0.0513,-0.0474,-0.0428,-0.036,-0.0303,-0.027,-0.0213,-0.0178,-0.0178,-0.0163,-0.0165,-0.0159,-0.025,-0.0268,-0.0164,-0.0164,-0.0164,-0.0164,-0.0164,-0.0164,-0.0745,-0.0676,-0.0665,-0.0579,-0.0554,-0.0494,-0.0468,-0.0433,-0.0402,-0.0326,-0.028,-0.0259,-0.0222,-0.0162,-0.011,-0.0101,-0.008,-0.0064,-0.0057,-0.0142,-0.0153,-0.0163,-0.018,-0.0059,-0.0059,0.003,0.003,0.0031]},{"header":{"parameterUnit":"m.s-1","parameterCategory":1,"la1":30.2991,"la2":30.254,"lo1":-89.0895,"lo2":-89.0444,"dy":0.0017,"dx":0.0017,"nx":28,"ny":28,"refTime":"2023-08-27T21:00:00:Z","depth":0,"parameterNumber":3,"parameterNumberName":"V-component_of_WINDS"},"data":[0,0,0,0,0,0,0,0,0,0,0,0,0,0,0,0,0,0,0,0,0,0,0,0,0,0,0,0,0,0,0,0,0,0,0,0,0,0,0,0,0,0,0,0,0,0,0,0,0,0,0,0,0,0,0,0,0,0,0.0613,0.0613,0,0.0654,0.0655,0.0655,0.0617,0.0615,0.0613,0.0612,0.066,0.0663,0.0666,0,0,0,0,0,0,0,0,0,0,0,0,0,0.0505,0.0507,0.0612,0.0613,0.0613,0.0654,0.0655,0.0655,0.0617,0.0615,0.0613,0.0611,0.0659,0.0663,0.0666,0,0,0,0,0,0,0,0,0,0,0,0,0,0.055,0.0508,0.0612,0.0599,0.0598,0.0654,0.0655,0.0655,0.0617,0.0615,0.0612,0.061,0.0658,0.0662,0.0666,0.0739,0,0,0.0679,0.0681,0,0,0,0,0,0,0,0,0.0547,0.0554,0.0601,0.06,0.0599,0.0628,0.0634,0.0684,0.0618,0.061,0.0612,0.0609,0.0652,0.0656,0.0669,0.0741,0.0743,0.0679,0.0682,0.0684,0.0685,0,0,0,0,0,0,0,0.0544,0.0552,0.0629,0.0601,0.0601,0.0593,0.0596,0.0643,0.0644,0.0611,0.0608,0.0613,0.0651,0.0665,0.067,0.0744,0.0679,0.0683,0.0685,0.0687,0.0878,0.088,0,0,0,0,0,0,0.0542,0.0549,0.0628,0.063,0.0567,0.0597,0.0601,0.0621,0.0643,0.0644,0.0615,0.0611,0.066,0.0665,0.0672,0.0759,0.0684,0.0687,0.069,0.0875,0.0878,0.0881,0,0,0,0,0,0,0.054,0.0549,0.0626,0.0589,0.0598,0.0601,0.0624,0.0623,0.0637,0.0646,0.0647,0.063,0.0658,0.0666,0.0722,0.076,0.0689,0.0693,0.0872,0.0876,0.088,0.0933,0,0,0,0,0,0,0.0537,0.0548,0.0575,0.059,0.06,0.0675,0.0626,0.0626,0.0644,0.0639,0.066,0.0661,0.0657,0.0716,0.0726,0.0764,0.0696,0.0869,0.0874,0.0879,0.0928,0.0938,0.0947,0,0,0,0,0,0.0533,0.0589,0.0576,0.0586,0.0633,0.0677,0.0683,0.0675,0.0647,0.0675,0.068,0.0661,0.0754,0.0722,0.0733,0.0773,0.0867,0.0873,0.0878,0.0923,0.0936,0.0946,0,0,0,0,0,0,0.0581,0.0591,0.0577,0.064,0.0657,0.067,0.0704,0.0688,0.0716,0.071,0.0701,0.0706,0.0765,0.0775,0.074,0.0845,0.0806,0.0814,0.0836,0.0848,0.0858,0.0855,0.07,0,0,0,0,0,0.0598,0.0631,0.0639,0.0694,0.0703,0.0702,0.0721,0.0713,0.0732,0.074,0.0749,0.077,0.0804,0.0826,0.0858,0.0928,0.0933,0.0961,0.097,0.0978,0.0986,0.1025,0.1038,0.09,0.09,0.09,0,0,0.0636,0.0645,0.0667,0.0703,0.0716,0.0752,0.0709,0.0749,0.0776,0.0746,0.0799,0.0807,0.083,0.0893,0.0922,0.0903,0.1025,0.0986,0.0992,0.0996,0.1032,0.1045,0.1057,0.0904,0.0904,0.0903,0,0,0.0722,0.0732,0.0779,0.0792,0.0811,0.081,0.0821,0.0836,0.084,0.0893,0.0871,0.0904,0.0962,0.0979,0.0995,0.1087,0.1071,0.1098,0.1148,0.1186,0.1197,0.1206,0.124,0.1252,0.1105,0.1105,0.1105,0,0.0767,0.0818,0.0805,0.0846,0.0863,0.0836,0.0884,0.0898,0.0928,0.0941,0.0919,0.0991,0.1004,0.1071,0.1094,0.1107,0.1121,0.1096,0.1196,0.1205,0.1214,0.1246,0.1259,0.1109,0.1108,0.1108,0.1108,0,0.0872,0.0908,0.0944,0.0971,0.0992,0.1036,0.1032,0.1055,0.1045,0.1047,0.1102,0.1116,0.115,0.1165,0.1157,0.1232,0.122,0.1197,0.1158,0.1231,0.1261,0.1273,0.1113,0.1112,0.1111,0.111,0,0,0.0992,0.101,0.1023,0.1035,0.1054,0.1082,0.1126,0.1157,0.1178,0.1199,0.1236,0.1285,0.1264,0.1283,0.1275,0.1308,0.1381,0.1282,0.1282,0.1301,0.1466,0.1484,0.1499,0.137,0.1372,0.1374,0.1465,0,0.1079,0.1153,0.1142,0.1214,0.1248,0.1222,0.126,0.1277,0.1279,0.131,0.1313,0.1349,0.1317,0.1328,0.136,0.1366,0.1415,0.1359,0.1406,0.1408,0.1403,0.1514,0.1534,0.1619,0.1476,0.1478,0.148,0,0.1192,0.1215,0.1289,0.1302,0.1316,0.135,0.1378,0.1407,0.1425,0.1425,0.1445,0.1432,0.1477,0.1436,0.15,0.1462,0.1481,0.1486,0.149,0.1495,0.145,0.1524,0.1646,0.1659,0.1498,0.1497,0.1495,0,0.1272,0.1322,0.1373,0.1384,0.14,0.1425,0.1434,0.1449,0.1469,0.1494,0.1507,0.1537,0.1555,0.1579,0.1576,0.1546,0.164,0.1599,0.1643,0.1643,0.1666,0.1665,0.1793,0.1675,0.1675,0.1675,0.1675,0,0.1372,0.1419,0.1409,0.1441,0.1493,0.1481,0.1534,0.1539,0.1553,0.1587,0.1567,0.1599,0.1591,0.1624,0.1621,0.1674,0.1682,0.1684,0.1684,0.1687,0.1687,0.17,0.1695,0.1678,0.1678,0.1677,0.1676,0,0.1472,0.1467,0.1521,0.1531,0.1535,0.1573,0.1583,0.1614,0.1614,0.1657,0.1666,0.1668,0.1705,0.1703,0.1745,0.1743,0.1809,0.1801,0.1803,0.1802,0.1846,0.1843,0.1989,0.2009,0.1877,0.1878,0.1879,0,0.1537,0.1572,0.1585,0.1605,0.1615,0.1647,0.1666,0.1656,0.1677,0.1701,0.1729,0.1764,0.1791,0.1852,0.1858,0.189,0.1883,0.1932,0.1888,0.1891,0.1886,0.1884,0.1888,0.1942,0.1943,0.1944,0.1945,0,0.1652,0.1648,0.1675,0.1702,0.1725,0.1746,0.1765,0.1783,0.1775,0.18,0.1837,0.1858,0.19,0.1936,0.1966,0.1977,0.1961,0.1959,0.1971,0.1976,0.1976,0.1978,0.1828,0.1956,0.1955,0.1954,0.1954,0.1953,0.1737,0.1767,0.1781,0.1813,0.1826,0.1844,0.1873,0.1876,0.1906,0.1938,0.1931,0.1972,0.199,0.203,0.2043,0.2076,0.2059,0.2077,0.2081,0.2086,0.2092,0.1969,0.2082,0.2082,0.2081,0.2081,0.2081,0,0.1853,0.186,0.1889,0.1915,0.1941,0.192,0.194,0.1963,0.1999,0.2017,0.2043,0.2086,0.212,0.2128,0.2161,0.2186,0.218,0.2195,0.2194,0.2197,0.2105,0.2091,0.22,0.22,0.22,0.22,0.22,0.22,0.1916,0.1966,0.1963,0.202,0.2027,0.2066,0.208,0.2097,0.211,0.2158,0.2185,0.219,0.2204,0.2237,0.2268,0.227,0.2284,0.2303,0.2302,0.2216,0.2204,0.2192,0.218,0.2305,0.2306,0.2392,0.2393,0.2393]}]]